TimeCDT,TemperatureF,Dew PointF,Humidity,Sea Level PressureIn,VisibilityMPH,Wind Direction,Wind SpeedMPH,Gust SpeedMPH,PrecipitationIn,Events,Conditions,WindDirDegrees,DateUTC
12:51 AM,71.6,64.4,78,29.71,10.0,North,12.7,23.0,N/A,,Overcast,350,2013-07-23 05:51:00
12:53 AM,70.0,64.9,84,29.70,10.0,North,13.8,23.0,N/A,,Overcast,350,2013-07-23 05:53:00
1:42 AM,69.1,64.0,84,29.72,10.0,NNW,6.9,-,N/A,,Overcast,340,2013-07-23 06:42:00
1:53 AM,69.1,63.0,81,29.71,10.0,North,5.8,-,N/A,,Overcast,350,2013-07-23 06:53:00
2:53 AM,66.9,60.1,79,29.73,10.0,North,9.2,-,N/A,,Overcast,350,2013-07-23 07:53:00
3:53 AM,66.0,59.0,78,29.75,10.0,North,-9999.0,-,N/A,,Overcast,0,2013-07-23 08:53:00
4:53 AM,64.0,57.0,78,29.76,10.0,NNW,6.9,-,N/A,,Scattered Clouds,340,2013-07-23 09:53:00
5:53 AM,62.1,57.0,84,29.78,10.0,NW,4.6,-,N/A,,Partly Cloudy,310,2013-07-23 10:53:00
6:53 AM,64.0,57.0,78,29.80,10.0,NW,8.1,-,N/A,,Clear,320,2013-07-23 11:53:00
7:53 AM,64.9,55.0,70,29.81,10.0,North,12.7,-,N/A,,Clear,350,2013-07-23 12:53:00
8:53 AM,64.0,55.0,73,29.83,10.0,NNW,16.1,21.9,N/A,,Scattered Clouds,340,2013-07-23 13:53:00
9:53 AM,66.0,54.0,65,29.86,10.0,North,13.8,-,N/A,,Partly Cloudy,350,2013-07-23 14:53:00
10:53 AM,64.9,52.0,63,29.88,10.0,North,19.6,24.2,N/A,,Mostly Cloudy,350,2013-07-23 15:53:00
11:53 AM,66.9,51.1,57,29.89,10.0,North,13.8,20.7,N/A,,Mostly Cloudy,350,2013-07-23 16:53:00
12:53 PM,69.1,52.0,54,29.91,10.0,North,13.8,-,N/A,,Overcast,350,2013-07-23 17:53:00
1:53 PM,70.0,51.1,51,29.91,10.0,North,15.0,-,N/A,,Mostly Cloudy,360,2013-07-23 18:53:00
2:53 PM,70.0,50.0,49,29.92,10.0,North,13.8,-,N/A,,Overcast,10,2013-07-23 19:53:00
3:53 PM,70.0,48.9,47,29.93,10.0,North,11.5,18.4,N/A,,Overcast,360,2013-07-23 20:53:00
4:53 PM,71.1,48.9,45,29.93,10.0,North,10.4,-,N/A,,Mostly Cloudy,350,2013-07-23 21:53:00
5:53 PM,69.1,48.0,47,29.94,10.0,North,10.4,-,N/A,,Clear,360,2013-07-23 22:53:00
6:53 PM,70.0,48.9,47,29.94,10.0,North,12.7,-,N/A,,Clear,360,2013-07-23 23:53:00
7:53 PM,66.9,48.0,51,29.95,10.0,North,8.1,-,N/A,,Clear,360,2013-07-24 00:53:00
8:53 PM,63.0,52.0,67,29.97,10.0,NNE,10.4,-,N/A,,Clear,30,2013-07-24 01:53:00
9:53 PM,59.0,52.0,78,29.99,10.0,North,4.6,-,N/A,,Clear,360,2013-07-24 02:53:00
10:53 PM,57.9,53.1,84,30.00,10.0,Calm,Calm,-,N/A,,Clear,0,2013-07-24 03:53:00
11:53 PM,55.9,52.0,87,30.01,10.0,Calm,Calm,-,N/A,,Clear,0,2013-07-24 04:53:00